Redwood Falls, MN

2:16 PM CST on February 08, 2016 (GMT -0600)
Redwood Falls Municipal

Weather History for KRWF - October, 2011

Change the Weather History Date:

Wednesday, October 26, 2011

  Actual Average Record
Temperature  
Mean Temperature 42 °F -  
Max Temperature 48 °F 58 °F 84 °F (1955)
Min Temperature 34 °F 35 °F 15 °F (1936)
Degree Days  
Heating Degree Days 22    
Moisture  
Dew Point 36 °F    
Average Humidity 76    
Maximum Humidity 92    
Minimum Humidity 62    
Precipitation  
Precipitation 0.00 in - - ()
Sea Level Pressure  
Sea Level Pressure 30.10 in    
Wind  
Wind Speed 5 mph (NW)    
Max Wind Speed 13 mph    
Max Gust Speed -    
Visibility 10 miles    
Events      
Averages and records for this station are not official NWS values.
T = Trace of Precipitation, MM = Missing Value Source: NWS Daily Summary

Daily Weather History Graph

Daily Weather History Graph

Search for Another Location

Airport or City:

Trip Planner

Search our weather history database for the weather conditions in past years. The results will help you decide how hot, cold, wet, or windy it might be!

Date:

Astronomy

Oct. 26, 2011 Rise Set
Actual Time 7:49 AM CDT 6:18 PM CDT
Civil Twilight 7:19 AM CDT 6:48 PM CDT
Nautical Twilight 6:45 AM CDT 7:22 PM CDT
Astronomical Twilight 6:11 AM CDT 7:56 PM CDT
Moon 7:40 AM CDT (10/26) 5:58 PM CDT (10/26)
Length of Visible Light 11h 28m
Length of Day
10h 28m
Waning Crescent, 0% of the Moon is Illuminated
Oct 26
Waning Crescent
Oct 26
New
Nov 2
First Quarter
Nov 10
Full
Nov 18
Last Quarter

Hourly Weather History & Observations

Time (CDT) Temp. Windchill Dew Point Humidity Pressure Visibility Wind Dir Wind Speed Gust Speed Precip Events Conditions
12:53 AM 43.0 °F 39.5 °F 35.1 °F 74% 30.06 in 10.0 mi North 5.8 mph - N/A   Clear
1:53 AM 43.0 °F 40.3 °F 36.0 °F 76% 30.07 in 10.0 mi NW 4.6 mph - N/A   Overcast
3:53 AM 39.9 °F - 36.0 °F 86% 30.08 in 10.0 mi Calm Calm - N/A   Scattered Clouds
4:53 AM 41.0 °F - 36.0 °F 82% 30.08 in 10.0 mi Calm Calm - N/A   Scattered Clouds
7:53 AM 39.9 °F - 36.0 °F 86% 30.11 in 10.0 mi Calm Calm - N/A   Overcast
8:53 AM 39.9 °F - 36.0 °F 86% 30.12 in 10.0 mi Calm Calm - N/A   Mostly Cloudy
9:53 AM 42.1 °F - 36.0 °F 79% 30.12 in 10.0 mi Calm Calm - N/A   Overcast
10:39 AM 44.6 °F 43.1 °F 35.6 °F 71% 30.11 in 10.0 mi South 3.5 mph - N/A   Mostly Cloudy
10:53 AM 45.0 °F 42.6 °F 36.0 °F 71% 30.14 in 10.0 mi SSW 4.6 mph - N/A   Scattered Clouds
11:37 AM 46.4 °F 42.4 °F 37.4 °F 71% 30.11 in 10.0 mi NW 8.1 mph - N/A   Mostly Cloudy
11:44 AM 46.4 °F 42.9 °F 37.4 °F 71% 30.11 in 10.0 mi Variable 6.9 mph - N/A   Mostly Cloudy
11:51 AM 46.4 °F 43.5 °F 37.4 °F 71% 30.11 in 10.0 mi WNW 5.8 mph - N/A   Overcast
11:53 AM 48.0 °F - 37.9 °F 68% 30.13 in 10.0 mi NW 4.6 mph - N/A   Overcast
12:53 PM 46.9 °F - 37.9 °F 71% 30.14 in 10.0 mi NNW 9.2 mph - N/A   Overcast
1:53 PM 46.9 °F - 37.0 °F 68% 30.11 in 10.0 mi NNW 9.2 mph - N/A   Overcast
2:25 PM 48.2 °F - 35.6 °F 62% 30.09 in 10.0 mi WNW 8.1 mph - N/A   Overcast
2:33 PM 48.2 °F - 35.6 °F 62% 30.08 in 10.0 mi WNW 9.2 mph - N/A   Overcast
2:53 PM 48.0 °F - 37.0 °F 66% 30.10 in 10.0 mi WNW 10.4 mph - N/A   Overcast
3:10 PM 48.2 °F - 35.6 °F 62% 30.07 in 10.0 mi NW 9.2 mph - N/A   Overcast
3:53 PM 48.0 °F - 37.0 °F 66% 30.09 in 10.0 mi NW 11.5 mph - N/A   Overcast
4:53 PM 46.9 °F - 37.0 °F 68% 30.09 in 10.0 mi NW 12.7 mph - N/A   Partly Cloudy
5:53 PM 44.1 °F 40.1 °F 39.0 °F 82% 30.09 in 10.0 mi NW 6.9 mph - 0.00 in   Overcast
6:53 PM 42.1 °F 39.2 °F 37.9 °F 85% 30.10 in 10.0 mi NW 4.6 mph - N/A   Clear
7:53 PM 42.1 °F - 37.0 °F 82% 30.10 in 10.0 mi Calm Calm - N/A   Clear
8:53 PM 39.9 °F 37.8 °F 36.0 °F 86% 30.10 in 10.0 mi NW 3.5 mph - N/A   Clear
9:53 PM 37.9 °F 34.4 °F 34.0 °F 86% 30.10 in 10.0 mi WNW 4.6 mph - N/A   Clear
10:53 PM 37.0 °F 34.5 °F 34.0 °F 89% 30.10 in 10.0 mi West 3.5 mph - N/A   Clear
11:53 PM 34.0 °F - 32.0 °F 92% 30.09 in 10.0 mi Calm Calm - N/A   Overcast